Location: Lake Arresoe
(56.0000°N, 12.5000°E)
Time: 22:06:13
(UTC+02:00)

Resurs 1-4 Rocket - Visible Passes

Search period start: 16 September 2019 00:00
Search period end: 26 September 2019 00:00
Orbit: 799 x 815 km, 98.6° (Epoch: 15 September)

Date Brightness Start Highest point End Pass type
(mag) Time Alt. Az. Time Alt. Az. Time Alt. Az.
16 Sep 3.1 02:22:49 10° NNE 02:27:44 37° E 02:28:02 37° ESE visible
16 Sep 2.5 04:02:40 10° N 04:07:43 47° WNW 04:09:06 38° WSW visible
16 Sep 4.1 05:43:57 10° NNW 05:46:26 14° NW 05:48:55 10° WNW visible
17 Sep 3.6 01:58:31 10° NE 02:02:53 26° E 02:03:02 25° E visible
17 Sep 2.1 03:37:57 10° NNE 03:43:12 69° WNW 03:44:07 57° WSW visible
17 Sep 3.8 05:18:46 10° N 05:22:14 18° NW 05:25:11 12° W visible
18 Sep 4.1 01:34:29 10° NE 01:37:57 17° E 01:38:02 17° E visible
18 Sep 2.0 03:13:18 10° NNE 03:18:37 83° ESE 03:19:07 73° S visible
18 Sep 3.4 04:53:47 10° N 04:57:57 24° NW 05:00:11 18° W visible
19 Sep 4.5 01:11:15 10° ENE 01:12:56 11° E 01:13:03 11° E visible
19 Sep 2.4 02:48:44 10° NNE 02:53:57 57° ESE 02:54:07 56° ESE visible
19 Sep 3.0 04:28:55 10° N 04:33:36 33° WNW 04:35:11 28° W visible
20 Sep 3.1 02:24:15 10° NNE 02:29:07 38° E 02:29:07 38° E visible
20 Sep 2.5 04:04:08 10° N 04:09:11 46° WNW 04:10:11 41° W visible
20 Sep 4.1 05:45:27 10° NNW 05:47:52 13° NW 05:50:17 10° WNW visible
21 Sep 3.7 01:59:56 10° NE 02:04:07 26° E 02:04:07 26° E visible
21 Sep 2.0 03:39:24 10° NNE 03:44:40 67° WNW 03:45:12 63° WSW visible
21 Sep 3.8 05:20:15 10° N 05:23:40 18° NW 05:26:16 13° W visible
22 Sep 4.2 01:35:53 10° NE 01:39:07 18° E 01:39:07 18° E visible
22 Sep 2.0 03:14:45 10° NNE 03:20:05 85° ESE 03:20:11 84° SE visible
22 Sep 3.5 04:55:15 10° N 04:59:23 24° NW 05:01:16 20° W visible
23 Sep 4.6 01:12:32 10° ENE 01:14:07 12° ENE 01:14:07 12° ENE visible
23 Sep 2.5 02:50:11 10° NNE 02:55:12 58° E 02:55:12 58° E visible
23 Sep 3.0 04:30:23 10° N 04:35:03 32° WNW 04:36:16 29° W visible
24 Sep 3.1 02:25:43 10° NNE 02:30:12 38° E 02:30:12 38° E visible
24 Sep 2.5 04:05:36 10° N 04:10:37 45° WNW 04:11:16 43° W visible
24 Sep 4.1 05:46:57 10° NNW 05:49:18 13° NW 05:51:39 10° WNW visible
25 Sep 3.7 02:01:23 10° NE 02:05:12 26° E 02:05:12 26° E visible
25 Sep 2.1 03:40:52 10° NNE 03:46:08 65° WNW 03:46:16 65° WNW visible
25 Sep 3.8 05:21:43 10° N 05:25:07 17° NW 05:27:20 14° WNW visible
